Time,TemperatureF,DewpointF,PressureIn,WindDirection,WindDirectionDegrees,WindSpeedMPH,WindSpeedGustMPH,Humidity,HourlyPrecipIn,Conditions,Clouds,dailyrainin,SolarRadiationWatts/m^2,SoftwareType,DateUTC
2013-04-11 00:01:00,41.0,15.0,-100.00,NW,326,9.0,18.0,35,0.00,,,0.00,0.000000,,2013-04-11 06:01:00,
2013-04-11 00:32:00,41.0,15.0,-100.00,NW,326,9.0,18.0,35,0.00,,,0.00,0.000000,,2013-04-11 06:32:00,
2013-04-11 00:42:00,41.0,15.0,-100.00,NW,326,9.0,18.0,35,0.00,,,0.00,0.000000,,2013-04-11 06:42:00,
2013-04-11 00:52:00,41.0,15.0,-100.00,NW,326,9.0,18.0,35,0.00,,,0.00,0.000000,,2013-04-11 06:52:00,
2013-04-11 01:01:00,40.0,15.0,-100.00,NNW,338,9.0,16.0,36,0.00,,,0.00,0.000000,,2013-04-11 07:01:00,
2013-04-11 01:32:00,40.0,15.0,-100.00,NNW,338,9.0,16.0,36,0.00,,,0.00,0.000000,,2013-04-11 07:32:00,
2013-04-11 01:43:00,40.0,15.0,-100.00,NNW,338,9.0,16.0,36,0.00,,,0.00,0.000000,,2013-04-11 07:43:00,
2013-04-11 01:52:00,40.0,15.0,-100.00,NNW,338,9.0,16.0,36,0.00,,,0.00,0.000000,,2013-04-11 07:52:00,
2013-04-11 02:01:00,39.0,16.0,-100.00,NNW,338,9.0,15.0,38,0.00,,,0.00,0.000000,,2013-04-11 08:01:00,
2013-04-11 02:22:00,39.0,16.0,-100.00,NNW,338,9.0,15.0,38,0.00,,,0.00,0.000000,,2013-04-11 08:22:00,
2013-04-11 02:33:00,39.0,16.0,-100.00,NNW,338,9.0,15.0,38,0.00,,,0.00,0.000000,,2013-04-11 08:33:00,
2013-04-11 02:43:00,39.0,16.0,-100.00,NNW,338,9.0,15.0,38,0.00,,,0.00,0.000000,,2013-04-11 08:43:00,
2013-04-11 02:52:00,39.0,16.0,-100.00,NNW,338,9.0,15.0,38,0.00,,,0.00,0.000000,,2013-04-11 08:52:00,
2013-04-11 03:01:00,35.0,12.0,-100.00,North,356,3.0,11.0,38,0.00,,,0.00,0.000000,,2013-04-11 09:01:00,
2013-04-11 03:33:00,35.0,12.0,-100.00,North,356,3.0,11.0,38,0.00,,,0.00,0.000000,,2013-04-11 09:33:00,
2013-04-11 03:43:00,35.0,12.0,-100.00,North,356,3.0,11.0,38,0.00,,,0.00,0.000000,,2013-04-11 09:43:00,
2013-04-11 03:53:00,35.0,12.0,-100.00,North,356,3.0,11.0,38,0.00,,,0.00,0.000000,,2013-04-11 09:53:00,
2013-04-11 04:01:00,35.0,14.0,-100.00,NNW,340,4.0,8.0,41,0.00,,,0.00,0.000000,,2013-04-11 10:01:00,
2013-04-11 04:32:00,35.0,14.0,-100.00,NNW,340,4.0,8.0,41,0.00,,,0.00,0.000000,,2013-04-11 10:32:00,
2013-04-11 04:42:00,35.0,14.0,-100.00,NNW,340,4.0,8.0,41,0.00,,,0.00,0.000000,,2013-04-11 10:42:00,
2013-04-11 04:52:00,35.0,14.0,-100.00,NNW,340,4.0,8.0,41,0.00,,,0.00,0.000000,,2013-04-11 10:52:00,
2013-04-11 05:01:00,35.0,14.0,-100.00,NW,317,5.0,8.0,41,0.00,,,-99.99,0.000000,,2013-04-11 11:01:00,
2013-04-11 05:32:00,35.0,14.0,-100.00,NW,317,5.0,8.0,41,0.00,,,-99.99,0.000000,,2013-04-11 11:32:00,
2013-04-11 05:43:00,35.0,14.0,-100.00,NW,317,5.0,8.0,41,0.00,,,-99.99,0.000000,,2013-04-11 11:43:00,
2013-04-11 05:52:00,35.0,14.0,-100.00,NW,317,5.0,8.0,41,0.00,,,-99.99,0.000000,,2013-04-11 11:52:00,
2013-04-11 06:01:00,34.0,15.0,-100.00,NNW,341,5.0,10.0,45,0.00,,,-99.99,0.000000,,2013-04-11 12:01:00,
2013-04-11 06:32:00,34.0,15.0,-100.00,NNW,341,5.0,10.0,45,0.00,,,-99.99,0.000000,,2013-04-11 12:32:00,
2013-04-11 06:43:00,34.0,15.0,-100.00,NNW,341,5.0,10.0,45,0.00,,,-99.99,0.000000,,2013-04-11 12:43:00,
2013-04-11 06:52:00,34.0,15.0,-100.00,NNW,341,5.0,10.0,45,0.00,,,-99.99,0.000000,,2013-04-11 12:52:00,
2013-04-11 07:01:00,33.0,15.0,-100.00,NNW,338,6.0,9.0,47,0.00,,,0.00,4.000000,,2013-04-11 13:01:00,
2013-04-11 07:32:00,33.0,15.0,-100.00,NNW,338,6.0,9.0,47,0.00,,,0.00,4.000000,,2013-04-11 13:32:00,
2013-04-11 07:43:00,33.0,15.0,-100.00,NNW,338,6.0,9.0,47,0.00,,,0.00,4.000000,,2013-04-11 13:43:00,
2013-04-11 07:54:00,33.0,15.0,-100.00,NNW,338,6.0,9.0,47,0.00,,,0.00,4.000000,,2013-04-11 13:54:00,
2013-04-11 08:01:00,40.0,19.0,-100.00,NW,315,6.0,10.0,43,0.00,,,0.00,92.000000,,2013-04-11 14:01:00,
2013-04-11 08:33:00,40.0,19.0,-100.00,NW,315,6.0,10.0,43,0.00,,,0.00,92.000000,,2013-04-11 14:33:00,
2013-04-11 08:43:00,40.0,19.0,-100.00,NW,315,6.0,10.0,43,0.00,,,0.00,92.000000,,2013-04-11 14:43:00,
2013-04-11 08:53:00,40.0,19.0,-100.00,NW,315,6.0,10.0,43,0.00,,,0.00,92.000000,,2013-04-11 14:53:00,
2013-04-11 11:01:00,50.0,15.0,-100.00,West,270,9.0,15.0,24,-99.99,,,0.00,804.000000,,2013-04-11 17:01:00,
2013-04-11 11:33:00,50.0,15.0,-100.00,West,270,9.0,15.0,24,-99.99,,,0.00,804.000000,,2013-04-11 17:33:00,
2013-04-11 11:43:00,50.0,15.0,-100.00,West,270,9.0,15.0,24,-99.99,,,0.00,804.000000,,2013-04-11 17:43:00,
2013-04-11 11:53:00,50.0,15.0,-100.00,West,270,9.0,15.0,24,-99.99,,,0.00,804.000000,,2013-04-11 17:53:00,
2013-04-11 12:01:00,52.0,15.0,-100.00,West,263,10.0,21.0,23,0.00,,,0.00,943.000000,,2013-04-11 18:01:00,
2013-04-11 12:33:00,52.0,15.0,-100.00,West,263,10.0,21.0,23,0.00,,,0.00,943.000000,,2013-04-11 18:33:00,
2013-04-11 12:43:00,52.0,15.0,-100.00,West,263,10.0,21.0,23,0.00,,,0.00,943.000000,,2013-04-11 18:43:00,
2013-04-11 12:53:00,52.0,15.0,-100.00,West,263,10.0,21.0,23,0.00,,,0.00,943.000000,,2013-04-11 18:53:00,
2013-04-11 13:01:00,56.0,17.0,-100.00,WSW,258,8.0,17.0,21,0.00,,,0.00,1014.000000,,2013-04-11 19:01:00,
2013-04-11 13:23:00,56.0,17.0,-100.00,WSW,258,8.0,17.0,21,0.00,,,0.00,1014.000000,,2013-04-11 19:23:00,
2013-04-11 13:33:00,56.0,17.0,-100.00,WSW,258,8.0,17.0,21,0.00,,,0.00,1014.000000,,2013-04-11 19:33:00,
2013-04-11 13:43:00,56.0,17.0,-100.00,WSW,258,8.0,17.0,21,0.00,,,0.00,1014.000000,,2013-04-11 19:43:00,
2013-04-11 13:53:00,56.0,17.0,-100.00,WSW,258,8.0,17.0,21,0.00,,,0.00,1014.000000,,2013-04-11 19:53:00,
2013-04-11 14:01:00,60.0,16.0,-100.00,WNW,302,6.0,17.0,18,0.00,,,0.00,1017.000000,,2013-04-11 20:01:00,
2013-04-11 14:33:00,60.0,16.0,-100.00,WNW,302,6.0,17.0,18,0.00,,,0.00,1017.000000,,2013-04-11 20:33:00,
2013-04-11 14:43:00,60.0,16.0,-100.00,WNW,302,6.0,17.0,18,0.00,,,0.00,1017.000000,,2013-04-11 20:43:00,
2013-04-11 14:52:00,60.0,16.0,-100.00,WNW,302,6.0,17.0,18,0.00,,,0.00,1017.000000,,2013-04-11 20:52:00,
2013-04-11 15:01:00,62.0,15.0,-100.00,WSW,253,9.0,17.0,16,0.00,,,0.00,953.000000,,2013-04-11 21:01:00,
2013-04-11 15:23:00,62.0,15.0,-100.00,WSW,253,9.0,17.0,16,0.00,,,0.00,953.000000,,2013-04-11 21:23:00,
2013-04-11 15:33:00,62.0,15.0,-100.00,WSW,253,9.0,17.0,16,0.00,,,0.00,953.000000,,2013-04-11 21:33:00,
2013-04-11 15:43:00,62.0,15.0,-100.00,WSW,253,9.0,17.0,16,0.00,,,0.00,953.000000,,2013-04-11 21:43:00,
2013-04-11 15:54:00,62.0,15.0,-100.00,WSW,253,9.0,17.0,16,0.00,,,0.00,953.000000,,2013-04-11 21:54:00,
2013-04-11 16:01:00,65.0,15.0,-100.00,SW,234,7.0,17.0,14,0.00,,,0.00,822.000000,,2013-04-11 22:01:00,
2013-04-11 16:33:00,65.0,15.0,-100.00,SW,234,7.0,17.0,14,0.00,,,0.00,822.000000,,2013-04-11 22:33:00,
2013-04-11 16:44:00,65.0,15.0,-100.00,SW,234,7.0,17.0,14,0.00,,,0.00,822.000000,,2013-04-11 22:44:00,
2013-04-11 16:53:00,65.0,15.0,-100.00,SW,234,7.0,17.0,14,0.00,,,0.00,822.000000,,2013-04-11 22:53:00,
2013-04-11 17:01:00,65.0,13.0,-100.00,West,262,8.0,17.0,13,0.00,,,0.00,637.000000,,2013-04-11 23:01:00,
2013-04-11 17:33:00,65.0,13.0,-100.00,West,262,8.0,17.0,13,0.00,,,0.00,637.000000,,2013-04-11 23:33:00,
2013-04-11 17:43:00,65.0,13.0,-100.00,West,262,8.0,17.0,13,0.00,,,0.00,637.000000,,2013-04-11 23:43:00,
2013-04-11 17:53:00,65.0,13.0,-100.00,West,262,8.0,17.0,13,0.00,,,0.00,637.000000,,2013-04-11 23:53:00,
2013-04-11 18:01:00,64.0,12.0,-100.00,SW,231,7.0,21.0,13,0.00,,,0.00,417.000000,,2013-04-12 00:01:00,
2013-04-11 18:33:00,64.0,12.0,-100.00,SW,231,7.0,21.0,13,0.00,,,0.00,417.000000,,2013-04-12 00:33:00,
2013-04-11 18:43:00,64.0,12.0,-100.00,SW,231,7.0,21.0,13,0.00,,,0.00,417.000000,,2013-04-12 00:43:00,
2013-04-11 18:53:00,64.0,12.0,-100.00,SW,231,7.0,21.0,13,0.00,,,0.00,417.000000,,2013-04-12 00:53:00,
2013-04-11 19:01:00,60.0,12.0,-100.00,South,183,7.0,15.0,15,0.00,,,0.00,121.000000,,2013-04-12 01:01:00,
2013-04-11 19:23:00,60.0,12.0,-100.00,South,183,7.0,15.0,15,0.00,,,0.00,121.000000,,2013-04-12 01:23:00,
2013-04-11 19:33:00,60.0,12.0,-100.00,South,183,7.0,15.0,15,0.00,,,0.00,121.000000,,2013-04-12 01:33:00,
2013-04-11 19:42:00,60.0,12.0,-100.00,South,183,7.0,15.0,15,0.00,,,0.00,121.000000,,2013-04-12 01:42:00,
2013-04-11 19:52:00,60.0,12.0,-100.00,South,183,7.0,15.0,15,0.00,,,0.00,121.000000,,2013-04-12 01:52:00,
2013-04-11 20:01:00,56.0,9.0,-100.00,SE,134,3.0,11.0,15,0.00,,,0.00,16.000000,,2013-04-12 02:01:00,
2013-04-11 20:22:00,56.0,9.0,-100.00,SE,134,3.0,11.0,15,0.00,,,0.00,16.000000,,2013-04-12 02:22:00,
2013-04-11 20:32:00,56.0,9.0,-100.00,SE,134,3.0,11.0,15,0.00,,,0.00,16.000000,,2013-04-12 02:32:00,
2013-04-11 20:42:00,56.0,9.0,-100.00,SE,134,3.0,11.0,15,0.00,,,0.00,16.000000,,2013-04-12 02:42:00,
2013-04-11 20:52:00,56.0,9.0,-100.00,SE,134,3.0,11.0,15,0.00,,,0.00,16.000000,,2013-04-12 02:52:00,
2013-04-11 21:01:00,56.0,10.0,-100.00,SE,130,4.0,7.0,16,0.00,,,0.00,0.000000,,2013-04-12 03:01:00,
2013-04-11 21:33:00,56.0,10.0,-100.00,SE,130,4.0,7.0,16,0.00,,,0.00,0.000000,,2013-04-12 03:33:00,
2013-04-11 21:43:00,56.0,10.0,-100.00,SE,130,4.0,7.0,16,0.00,,,0.00,0.000000,,2013-04-12 03:43:00,
2013-04-11 21:53:00,56.0,10.0,-100.00,SE,130,4.0,7.0,16,0.00,,,0.00,0.000000,,2013-04-12 03:53:00,
2013-04-11 22:01:00,54.0,10.0,-100.00,North,359,2.0,6.0,17,0.00,,,0.00,0.000000,,2013-04-12 04:01:00,
2013-04-11 22:23:00,54.0,10.0,-100.00,North,359,2.0,6.0,17,0.00,,,0.00,0.000000,,2013-04-12 04:23:00,
2013-04-11 22:33:00,54.0,10.0,-100.00,North,359,2.0,6.0,17,0.00,,,0.00,0.000000,,2013-04-12 04:33:00,
2013-04-11 22:43:00,54.0,10.0,-100.00,North,359,2.0,6.0,17,0.00,,,0.00,0.000000,,2013-04-12 04:43:00,
2013-04-11 22:53:00,54.0,10.0,-100.00,North,359,2.0,6.0,17,0.00,,,0.00,0.000000,,2013-04-12 04:53:00,
2013-04-11 23:01:00,54.0,10.0,-100.00,NNW,328,5.0,7.0,17,0.00,,,0.00,0.000000,,2013-04-12 05:01:00,
2013-04-11 23:32:00,54.0,10.0,-100.00,NNW,328,5.0,7.0,17,0.00,,,0.00,0.000000,,2013-04-12 05:32:00,
2013-04-11 23:42:00,54.0,10.0,-100.00,NNW,328,5.0,7.0,17,0.00,,,0.00,0.000000,,2013-04-12 05:42:00,
2013-04-11 23:52:00,54.0,10.0,-100.00,NNW,328,5.0,7.0,17,0.00,,,0.00,0.000000,,2013-04-12 05:52:00,